Location: Fort Hays State University
(38.8712°N, 99.3432°W)
Time: 19:38:59
(UTC-05:00)

Cosmos 2279 Rocket - Visible Passes

Search period start: 24 July 2017 00:00
Search period end: 03 August 2017 00:00
Orbit: 965 x 978 km, 82.9° (Epoch: 24 July)

Date Brightness Start Highest point End Pass type
(mag) Time Alt. Az. Time Alt. Az. Time Alt. Az.
24 Jul 6.0 00:10:14 10° NW 00:14:30 20° W 00:18:19 11° WSW visible
24 Jul 4.0 22:47:50 10° N 22:54:08 80° W 22:58:09 23° S visible
25 Jul 5.1 21:27:41 10° NNE 21:32:50 26° ENE 21:37:55 10° SE visible
25 Jul 4.9 23:12:24 10° NNW 23:18:17 44° W 23:22:39 18° SSW visible
26 Jul 4.4 21:51:24 10° N 21:57:23 46° ENE 22:02:33 14° SSE visible
26 Jul 5.8 23:37:26 10° NNW 23:42:19 25° W 23:47:10 10° SW visible
27 Jul 3.9 22:15:30 10° N 22:21:47 83° E 22:27:06 15° S visible
28 Jul 6.4 00:03:32 10° NW 00:06:09 13° W 00:08:47 10° WSW visible
28 Jul 4.6 22:39:56 10° NNW 22:46:01 56° W 22:51:41 12° SSW visible
29 Jul 4.6 21:19:13 10° N 21:24:58 37° ENE 21:30:39 10° SE visible
29 Jul 5.6 23:04:44 10° NNW 23:10:04 31° W 23:15:23 10° SW visible
30 Jul 4.0 21:43:11 10° N 21:49:25 67° E 21:55:35 10° SSE visible
30 Jul 6.4 23:30:16 10° NW 23:33:59 17° W 23:37:43 10° WSW visible
31 Jul 4.3 22:07:29 10° NNW 22:13:42 70° W 22:19:52 10° S visible
01 Aug 5.3 22:32:09 10° NNW 22:37:50 38° W 22:43:29 10° SSW visible
02 Aug 4.2 21:10:55 10° N 21:17:02 53° E 21:23:04 10° SSE visible
02 Aug 6.2 22:57:19 10° NW 23:01:48 21° W 23:06:16 10° SW visible
